This is the latest recevied weather packets stored in our database for station/object W5ZYX. If no packets are shown the sender has not sent any weather packets the latest 10 day(s).
| Time | Temp. | Humidity | Pressure | Rain* | Wind** | Luminosity | Snow |
|---|---|---|---|---|---|---|---|
| 1777505451 | 20.56° C | 92% | 1011 hPa | 0 mm | - | - | - |
| 1777505137 | 20.56° C | 92% | 1011.1 hPa | 0 mm | - | - | - |
| 1777504836 | 20.56° C | 92% | 1011.2 hPa | 0 mm | - | - | - |
| 1777504545 | 20.56° C | 92% | 1010.6 hPa | 0 mm | - | - | - |
| 1777504236 | 20.56° C | 93% | 1010.5 hPa | 0 mm | - | - | - |
| 1777503936 | 20.56° C | 92% | 1010.6 hPa | 0 mm | - | - | - |
| 1777503652 | 20.56° C | 92% | 1010.5 hPa | 0 mm | - | - | - |
| 1777503338 | 20.56° C | 92% | 1009.9 hPa | 0 mm | - | - | - |
| 1777503036 | 20.56° C | 92% | 1010 hPa | 0 mm | - | - | - |
| 1777502756 | 20.56° C | 92% | 1010.4 hPa | 0 mm | - | - | - |
| 1777502439 | 21.11° C | 92% | 1010.1 hPa | 0 mm | - | - | - |
| 1777502139 | 21.11° C | 92% | 1010.5 hPa | 0 mm | - | - | - |
| 1777501846 | 21.11° C | 92% | 1010.9 hPa | 0 mm | - | - | - |
| 1777501540 | 21.11° C | 91% | 1010.8 hPa | 0 mm | - | - | - |
| 1777501239 | 21.67° C | 91% | 1010.7 hPa | 0 mm | - | - | - |
| 1777500948 | 21.67° C | 91% | 1010.7 hPa | 0 mm | - | - | - |
| 1777500636 | 21.67° C | 90% | 1010.8 hPa | 0 mm | - | - | - |
| 1777500336 | 22.22° C | 90% | 1010.7 hPa | 0 mm | - | - | - |
| 1777500046 | 22.78° C | 89% | 1010.8 hPa | 0 mm | - | - | - |
| 1777499736 | 23.33° C | 89% | 1010.9 hPa | 0 mm | - | - | - |
| 1777499440 | 23.89° C | 88% | 1010.9 hPa | 0 mm | - | - | - |
| 1777499152 | 25° C | 87% | 1010.9 hPa | 0 mm | - | - | - |
| 1777498836 | 26.11° C | 90% | 1010.9 hPa | 0 mm | - | - | - |
| 1777498536 | 25.56° C | 90% | 1011 hPa | 0 mm | - | - | - |
| 1777498254 | 25.56° C | 89% | 1010.9 hPa | 0 mm | - | - | - |
* Rain latest hour (hover to see other rain measurements)
** Current wind speed in m/s (hover to see current wind gust speed)